Regional Weather Roundup
Issued by NWS

Home | Current Version | Previous Version | Graphics & Text | Print | Product List | Glossary On
Versions: 1 2 3 4 5 6 7 8 9 10 11 12 13 14 15 16 17 18 19 20 21 22 23 24 25 26 27 28 29 30 31 32 33 34 35 36 37 38 39 40 41 42 43 44 45 46 47 48 49 50
652
ASUS43 KLSX 250957
RWRMO

WEATHER SUMMARY FOR MISSOURI
NATIONAL WEATHER SERVICE SPRINGFIELD MO
400 AM CST SUN FEB 25 2018

NOTE: "FAIR" INDICATES FEW OR NO CLOUDS BELOW 12,000 FEET WITH NO
       SIGNIFICANT WEATHER AND/OR OBSTRUCTIONS TO VISIBILITY.
       CURRENT SKY AND/OR WEATHER CONDITIONS ARE NOT AVAILABLE FOR
       CHILLICOTHE AND FARMINGTON.

MOZ001>031-035>038-043-044-053-054-251100-
...NORTHERN AND WESTERN MISSOURI...

CITY           SKY/WX    TMP DP  RH WIND       PRES   REMARKS
KANSAS CTY INT CLEAR     27  20  75 W7        29.95S WCI  19
LEE`S SUMMIT   CLEAR     29  24  82 SW7       29.97R WCI  22
ST JOSEPH      CLEAR     26  22  84 SW7       29.96S WCI  18
CHILLICOTHE      N/A     30  23  75 SW5       29.95R WCI  25

$$
MOZ066>068-077>081-088>096-101>105-251100-
...SOUTHWEST MISSOURI...

CITY           SKY/WX    TMP DP  RH WIND       PRES   REMARKS
SPRINGFIELD    CLEAR     36  31  82 W7        29.98S
JOPLIN         CLEAR     32  30  92 SW3       30.01S

$$
MOZ032>034-039>042-045>050-055>058-069>072-251100-
...CENTRAL MISSOURI...

CITY           SKY/WX    TMP DP  RH WIND       PRES   REMARKS
COLUMBIA       NOT AVBL
JEFFERSON CITY CLEAR     34  29  82 W3        29.98R
ROLLA          CLEAR     31  30  96 SW8       29.96S WCI  23
SEDALIA        CLEAR     33  31  92 W9        29.98R WCI  25
WARRENSBURG    CLEAR     30  28  93 SW5       29.99R WCI  25

$$
MOZ051-052-059>065-251100-
...EAST CENTRAL MISSOURI...

CITY           SKY/WX    TMP DP  RH WIND       PRES   REMARKS
ST LOUIS INTL  CLEAR     36  31  82 W13       29.95R WCI  27

$$
MOZ072>076-082>087-097>100-106>115-251100-
...SOUTH CENTRAL AND SOUTHEAST MISSOURI...

CITY           SKY/WX    TMP DP  RH WIND       PRES   REMARKS
CAPE GIRARDEAU FAIR      44  35  70 W14       30.00R
POPLAR BLUFF   FAIR      42  34  73 W7        30.02R
WEST PLAINS    CLEAR     33  30  88 W3        30.00F

$$



USA.gov is the U.S. government's official web portal to all federal, state and local government web resources and services.